Location: Dompnac
(44.5644°N, 4.1026°E)
Time: 06:42:55
(UTC+00:00)

Daily predictions for brighter satellites

Satellite Brightness Start Highest point End
(mag) Time Altitude Azimuth Time Altitude Azimuth Time Altitude Azimuth
Meteor 1-21 4.4 18:08:46 10° N 18:14:17 54° ENE 18:19:44 10° SSE
Helios 1A Rocket 3.6 18:10:35 10° S 18:14:38 60° WSW 18:18:44 10° NNW
MOS 1 Rocket 4.0 18:11:29 10° NE 18:15:19 28° E 18:19:02 10° SSE
Cosmos 1603 3.7 18:10:13 10° NNW 18:15:56 78° ENE 18:21:33 10° SSE
CSL-04 Rocket 3.9 18:10:45 10° SE 18:15:59 53° ENE 18:21:19 10° N
SJ 16-02 2.4 18:13:50 10° SW 18:18:05 50° WNW 18:22:22 10° N
Cosmos 2112 Rocket 4.2 18:15:59 10° NNW 18:21:13 81° WSW 18:26:26 10° SSE
Cosmos 1937 Rocket 3.5 18:16:36 10° S 18:21:48 64° ESE 18:26:59 10° NNE
NOSS 8 (H) 4.1 18:19:16 10° SW 18:22:32 89° ESE 18:25:32 10° NE
Cosmos 1680 Rocket 4.0 18:19:31 10° NNW 18:24:43 65° WSW 18:29:53 10° S
Abrixas rocket 2.7 18:26:05 10° W 18:28:49 43° NNW 18:31:34 10° ENE
Okean 2 Rocket 4.0 18:25:11 10° SSE 18:29:01 28° E 18:32:51 10° NNE
Cosmos 1464 Rocket 4.4 18:25:01 10° SSE 18:30:36 39° E 18:36:14 10° NNE
NOSS 2-2 (E) 3.1 18:27:27 10° SSW 18:30:51 57° ESE 18:34:36 10° NE
Cosmos 1544 4.4 18:30:45 10° SSW 18:34:16 46° WNW 18:37:49 10° N
Okean-O 3.6 18:31:01 10° S 18:35:20 52° W 18:39:40 10° NNW
USA 116 3.4 18:32:25 10° NNE 18:35:53 82° ESE 18:39:45 10° SSW
Okean 2 3.7 18:32:24 10° NNW 18:36:35 73° W 18:40:43 10° S
ATLAS 2AS CENTAUR R/B 4.4 18:33:18 10° SE 18:36:41 13° ESE 18:40:05 10° ENE
Cosmos 1300 Rocket 4.2 18:33:40 10° SSE 18:37:36 33° E 18:41:33 10° NNE
CZ-2C R/B 2.9 18:35:32 10° SW 18:37:54 17° S 18:39:59 11° SE
NOSS 2-2 (D) 3.1 18:36:07 10° SSW 18:39:32 53° ESE 18:43:13 10° NE
Iridium 4 Rocket 4.0 18:38:48 10° SSW 18:43:40 66° W 18:49:03 10° N
USA 102 4.3 18:38:58 11° SE 18:43:47 25° E 18:45:14 19° NE
YAOGAN 1 3.3 18:40:26 10° S 18:44:40 56° W 18:48:57 10° NNW
Cosmos 1975 3.6 18:41:18 10° SSW 18:45:19 56° W 18:49:21 10° N
CENTAUR R/B 3.9 18:38:18 10° NNW 18:45:30 37° NE 18:51:59 15° E
H-2A R/B 1.9 18:43:51 10° SSE 18:48:47 83° ENE 18:53:52 10° NNW
SJ-11-01 4.3 18:44:40 10° SSE 18:49:24 89° WSW 18:54:08 10° NNW
CZ-4 R/B 3.0 18:46:08 10° SSW 18:50:06 40° W 18:54:05 10° NNW
Cosmos 1437 3.6 18:48:14 10° NNW 18:51:10 48° W 18:54:03 10° S
Cosmos 1674 4.2 18:48:48 10° NNE 18:51:35 19° ENE 18:52:09 18° E
ATLAS 3B R/B 4.4 18:47:07 10° NNW 18:51:47 19° NNE 18:56:34 10° ENE
ISS -3.8 18:50:29 10° SW 18:53:49 65° SE 18:56:09 18° ENE
Cosmos 1536 Rocket 4.2 18:52:08 10° N 18:56:14 35° ENE 18:58:59 18° SE
USA 238 DEB 4.2 18:50:17 10° NNW 18:57:15 49° NE 19:02:30 19° ESE
USA 238 4.2 18:50:24 10° NNW 18:57:21 49° NE 19:02:35 19° ESE
Cosmos 1891 Rocket 4.4 18:51:54 10° S 18:57:58 67° E 19:04:00 10° NNE
In-Cosmos 22 4.2 18:53:40 10° N 18:58:52 55° ENE 19:04:06 10° SSE
ARGOS 3.1 18:56:57 10° SSE 19:02:18 83° ENE 19:07:43 10° NNW
Cosmos 1025 Rocket 3.1 19:01:57 10° N 19:06:18 59° E 19:10:02 14° SSE
CZ-2C R/B 2.9 19:01:21 10° NNE 19:06:43 47° E 19:12:06 10° S
Cosmos 1707 2.7 19:05:42 10° N 19:09:33 87° W 19:13:22 10° S
Cosmos 2151 Rocket 3.7 19:06:01 10° S 19:10:20 54° E 19:14:43 10° NNE
USA 186 1.5 19:13:02 30° SSE 19:14:24 74° ENE 19:17:38 10° N
Ariane Rocket 2.9 19:12:56 14° SSE 19:17:16 70° ENE 19:22:20 10° N
SJ-6B 2.7 19:16:14 33° SE 19:17:41 56° ENE 19:21:22 10° N
CZ-2C R/B 4.4 19:13:30 10° SSW 19:18:26 43° W 19:23:41 10° NNW
Cosmos 1844 4.0 19:14:08 10° S 19:19:27 42° ESE 19:24:44 10° NE
FREGAT/IRIS 3.1 19:20:39 37° NNE 19:20:39 37° NNE 19:22:30 10° N
Cosmos 2263 Rocket 3.7 19:16:28 10° WSW 19:21:35 37° NW 19:26:45 10° NNE
Nadezhda 4 Rocket 3.9 19:17:47 10° N 19:23:55 70° E 19:29:17 14° SSE
NOSS 2-2 (C) 4.0 19:20:44 10° SW 19:24:09 50° NW 19:27:57 10° NNE
Cosmos 494 Rocket 4.5 19:19:33 10° N 19:24:33 41° ENE 19:26:05 33° ESE
NOSS 3-2 (A) 4.1 19:17:36 10° NW 19:25:06 72° NE 19:30:19 26° SE
MOS 1 4.2 19:21:25 17° SSE 19:25:57 73° ENE 19:31:39 10° N
Cosmos 2034 Rocket 3.9 19:21:44 10° S 19:28:04 77° E 19:34:26 10° N
Cosmos 1844 Rocket 2.6 19:22:39 10° S 19:28:06 61° ESE 19:33:37 10° NNE
USA 102 3.9 19:24:06 21° SSE 19:28:33 63° WSW 19:29:58 30° NW
Cosmos 2298 Rocket 3.9 19:25:12 10° SSW 19:30:32 84° ESE 19:35:54 10° NNE
SPOT 3 Rocket 3.8 19:32:57 38° ESE 19:34:16 46° ENE 19:39:12 10° N
Resurs 01 Rocket 2.3 19:42:54 38° ENE 19:42:54 38° ENE 19:46:42 10° N
USA 234 3.2 19:37:41 10° NE 19:44:08 58° SE 19:50:34 10° SSW
Cosmos 1867 4.5 19:40:23 10° NW 19:45:33 45° WSW 19:49:02 20° S
MetOp-A 4.1 19:42:59 24° SSE 19:46:16 84° WSW 19:51:40 10° NNW
Lacrosse 5 rocket 3.9 19:43:42 10° NW 19:46:34 17° N 19:49:28 10° NE
Cosmos 1833 Rocket 4.1 19:46:42 10° N 19:51:08 23° NE 19:51:25 23° NE
OBJECT-B 1.9 19:52:33 40° N 19:52:33 40° N 19:54:44 10° N
Meteor 1-15 Rocket 4.1 19:46:57 10° S 19:52:33 89° E 19:58:18 10° N
Cosmos 1626 3.9 19:54:27 10° N 19:56:03 22° NNE 19:56:03 22° NNE
ARIANE 5 R/B 4.0 20:01:02 26° NNE 20:01:02 26° NNE 20:03:29 10° N
NOSS 3-2 (C) 4.0 19:52:24 10° NW 19:59:57 75° NE 20:03:03 43° SE
DMSP B5D2-2 4.3 19:55:05 10° N 20:00:22 70° WNW 20:05:37 10° SSW
Cosmos 1634 Rocket 3.9 19:59:03 46° SSE 20:00:42 62° E 20:06:48 10° NNE
BREEZE-M TANK 2.6 19:56:35 10° WSW 20:04:23 87° S 20:04:37 79° E
Abrixas rocket 4.4 20:01:44 10° WNW 20:03:00 21° NW 20:03:00 21° NW
Cosmos 2285 Rocket 3.9 20:01:42 10° SSW 20:08:00 88° ESE 20:14:23 10° NNE
Cosmos 1125 Rocket 3.6 20:02:47 10° SSW 20:08:05 76° WNW 20:13:26 10° NNE
Okean 1 Rocket 3.1 20:08:19 78° WSW 20:08:28 80° W 20:12:59 10° N
Cosmos 1627 Rocket 4.4 20:11:41 10° N 20:18:06 89° ENE 20:19:38 56° S
Resurs 1-3 4.0 20:18:55 59° W 20:18:55 59° W 20:23:17 10° NNW
Cosmos 1092 Rocket 4.2 20:17:17 10° NNW 20:23:24 68° W 20:25:37 40° SSW
Meteor 2-5 Rocket 3.8 20:18:58 10° NNW 20:24:36 75° W 20:25:27 63° SSW
ATLAS 2AS CENTAUR R/B 2.9 20:18:29 10° SSW 20:26:17 64° ESE 20:34:06 10° NE
Cosmos 1674 4.4 20:23:44 10° NNW 20:27:00 32° W 20:27:00 32° W
Cosmos 2026 Rocket 4.0 20:23:17 10° N 20:29:40 80° W 20:30:53 60° SSW
ISS -1.0 20:27:46 10° W 20:29:08 20° WNW 20:29:08 20° WNW
Cosmos 2082 Rocket 3.6 20:28:35 10° N 20:32:16 26° NNE 20:32:16 26° NNE
Meteor 1-22 Rocket 4.3 20:34:25 78° SW 20:34:46 83° W 20:40:50 10° N
CENTAUR R/B 3.2 20:28:51 10° NW 20:37:02 78° SW 20:39:10 56° SSE
Cosmos 2279 Rocket 4.1 20:44:35 66° NNE 20:44:35 66° NNE 20:49:57 10° N
ATLAS 3B R/B 3.1 20:37:28 10° NNW 20:44:08 51° NE 20:44:10 51° NE
COSMOS 2406 3.6 20:38:36 10° NNW 20:43:10 54° N 20:43:10 54° N
Cosmos 2142 Rocket 4.4 20:47:06 82° WNW 20:47:06 82° WNW 20:53:18 10° N
Meteor 1-24 Rocket 4.0 20:41:54 10° NNW 20:47:08 62° W 20:47:08 62° W
Spot 2 Rocket 4.5 20:51:06 41° N 20:51:06 41° N 20:54:22 10° NNW
Terra 4.1 21:02:36 18° NNE 21:02:36 18° NNE 21:03:56 10° N
Lacrosse 4 Rocket 4.2 21:06:05 10° NNW 21:06:37 13° N 21:06:37 13° N
Resurs 01 Rocket 4.0 21:20:28 20° WNW 21:20:28 20° WNW 21:22:40 10° NW
USA 234 3.8 21:24:44 36° NNE 21:27:06 53° NNW 21:33:24 10° WSW
Lacrosse 5 rocket 4.3 21:23:41 10° NNW 21:25:05 16° NNW 21:25:05 16° NNW
Cosmos 1833 Rocket 4.1 21:29:57 10° NNW 21:33:07 34° NW 21:33:07 34° NW
Cosmos 2082 Rocket 4.4 22:12:16 10° NW 22:14:06 21° NW 22:14:06 21° NW
ATLAS 2AS CENTAUR R/B 4.0 22:10:19 10° WSW 22:17:45 41° NW 22:25:05 10° NNE
ATLAS 3B R/B 4.4 22:28:23 10° NW 22:31:25 25° WNW 22:31:25 25° WNW
